x

St. Clair Shores, Mi (clsm4) Weather Station

6:00am - Mon 5th Dec 2016 All times are CST. -6 hours from GMT.

  • Wind
    10mph, 17mph gusts
  • Air Temp 37°f
  • Sea Pressure 1015.2mb
  • St. Clair Shores, Mi
  • St. Clair Shores, Mi

More Historic Weather Station data

Upgrade to MSW Pro to gain access to the past 30 days of data for over 8000 Wavebouys and Weather Stations around the globe.

Join Pro

Comparision Forecast

View Surf forecast
   
Mon 12/05 6:00am 10 17 mph 1015.2mb 37f
5:50am 11 16 mph 1014.9mb 37f
5:40am 11 22 mph 1014.9mb 37f
5:30am 10 16 mph 1014.9mb 36f
5:20am 9 15 mph 1014.6mb 36f
5:10am 9 14 mph 1014.2mb 36f
5:00am 9 14 mph 1014.2mb 36f
4:50am 8 14 mph 1014.2mb 36f
4:40am 8 15 mph 1013.9mb 36f
4:30am 9 13 mph 1013.9mb 36f
4:20am 10 15 mph 1013.9mb 36f
4:10am 9 13 mph 1013.9mb 35f
4:00am 9 14 mph 1013.5mb 35f
3:50am 8 14 mph 1013.5mb 35f
3:40am 7 11 mph 1013.5mb 35f
3:30am 9 13 mph 1013.2mb 35f
3:20am 10 16 mph 1013.2mb 35f
3:10am 11 15 mph 1012.9mb 35f
3:00am 10 18 mph 1012.9mb 35f
2:50am 9 15 mph 1012.9mb 35f
2:40am 9 15 mph 1012.2mb 35f
2:30am 13 16 mph 1012.2mb 35f
2:20am 13 18 mph 1011.9mb 35f
2:10am 11 17 mph 1012.2mb 35f
2:00am 13 17 mph 1011.9mb 35f
1:50am 10 16 mph 1011.9mb 35f
1:40am 11 22 mph 1011.5mb 35f
1:30am 14 20 mph 1011.2mb 35f
1:20am 11 21 mph 1011.2mb 35f
1:10am 11 17 mph 1010.8mb 35f
1:00am 11 21 mph 1010.5mb 35f
12:50am 11 20 mph 1010.5mb 36f
12:40am 13 16 mph 1010.5mb 36f
12:30am 8 11 mph 1010.2mb 35f
12:20am 6 8 mph 1010.2mb 35f
12:10am 3 7 mph 1009.8mb 34f
12:00am 5 7 mph 1009.8mb 34f
Sun 12/04 11:50pm 5 7 mph 1009.8mb 34f
11:40pm 5 7 mph 1010.2mb 34f
11:30pm 5 7 mph 1010.2mb 34f
11:20pm 2 6 mph 1010.2mb 34f
11:10pm 3 6 mph 1010.2mb 33f
11:00pm 3 6 mph 1010.2mb 34f
10:50pm 3 5 mph 1009.8mb 33f
10:40pm 3 6 mph 1010.2mb 34f
10:30pm 3 6 mph 1010.5mb 34f
10:20pm 3 6 mph 1010.5mb 34f
10:10pm 5 9 mph 1010.5mb 34f
10:00pm 5 8 mph 1010.5mb 34f
9:50pm 5 8 mph 1010.5mb 34f
9:40pm 5 9 mph 1010.8mb 34f
9:30pm 7 8 mph 1010.8mb 34f
9:20pm 6 10 mph 1010.5mb 34f
9:10pm 6 9 mph 1011.2mb 35f
9:00pm 7 13 mph 1011.2mb 36f
8:50pm 8 17 mph 1011.5mb 36f
8:40pm 7 26 mph 1011.2mb 37f
8:30pm 14 23 mph 1011.2mb 37f
8:20pm 22 26 mph 1010.5mb 38f
8:10pm 23 26 mph 1010.5mb 39f
8:00pm 22 26 mph 1010.5mb 39f
7:50pm 23 25 mph 1010.5mb 40f
7:40pm 22 25 mph 1011.2mb 39f
7:30pm 21 25 mph 1011.2mb 38f
7:20pm 23 26 mph 1011.5mb 38f
7:10pm 24 26 mph 1011.9mb 39f
7:00pm 20 25 mph 1012.5mb 39f
6:50pm 20 23 mph 1012.9mb 39f
6:40pm 18 25 mph 1013.2mb 39f
6:30pm 20 26 mph 1013.2mb 40f
6:20pm 17 20 mph 1013.5mb 40f
6:10pm 16 21 mph 1013.5mb 40f
6:00pm 18 21 mph 1013.5mb 40f
5:50pm 14 16 mph 1014.2mb 40f
5:40pm 13 14 mph 1014.9mb 40f
5:30pm 10 13 mph 1015.2mb 39f
5:20pm 10 13 mph 1015.2mb 39f
5:10pm 10 11 mph 1015.6mb 39f
5:00pm 10 13 mph 1015.6mb 39f
4:50pm 10 11 mph 1016.3mb 39f
4:40pm 7 9 mph 1016.6mb 39f
4:30pm 7 9 mph 1016.6mb 39f
4:20pm 7 10 mph 1016.9mb 39f
4:10pm 8 11 mph 1017.3mb 39f
4:00pm 8 10 mph 1017.3mb 39f
3:50pm 8 11 mph 1017.3mb 39f
3:40pm 10 11 mph 1017.3mb 39f
3:30pm 10
mph
1017.6mb 38f
3:20pm 9 10 mph 1017.6mb 39f
3:10pm 9 14 mph 1017.6mb 38f
3:00pm 9 13 mph 1017.9mb 38f
2:50pm 10 14 mph 1017.9mb 39f
2:40pm 9 13 mph 1017.9mb 38f
2:30pm 10 11 mph 1017.9mb 38f
2:20pm 9 14 mph 1017.9mb 38f
2:10pm 11 14 mph 1018.3mb 39f
2:00pm 8 11 mph 1018.6mb 38f
1:50pm 8 11 mph 1018.6mb 38f
1:40pm 7 9 mph 1018.6mb 38f
1:30pm 8 10 mph 1018.6mb 38f
1:20pm 7 11 mph 1019mb 38f
1:10pm 7 8 mph 1019.3mb 38f
1:00pm 6 8 mph 1019.3mb 39f
12:50pm 7 9 mph 1019.6mb 39f
12:40pm 7 8 mph 1020mb 38f
12:30pm 5 9 mph 1020.3mb 38f
12:20pm 10 11 mph 1020mb 38f
12:10pm 7 10 mph 1020.3mb 38f
12:00pm 7 9 mph 1020.7mb 38f
11:50am 8 9 mph 1021mb 38f
11:40am 6 11 mph 1021mb 38f
11:30am 6 11 mph 1021.3mb 38f
11:20am 8 10 mph 1021.7mb 38f
11:10am 6 10 mph 1022mb 38f
11:00am 8 10 mph 1022mb 38f
10:50am 3 8 mph 1022.4mb 39f
10:40am 8 21 mph 1022.4mb 38f
10:30am 5 10 mph 1022.7mb 38f
10:20am 7 11 mph 1023mb 38f
10:10am 7 9 mph 1023.4mb 38f
10:00am 6 8 mph 1023.4mb 38f
9:50am 2 5 mph 1023.4mb 38f
9:40am 3 5 mph 1023.7mb 38f
9:30am 5
mph
1023.7mb 38f
9:20am 2 3 mph 1023.7mb 38f
9:10am 2 3 mph 1024mb 37f
9:00am 1 6 mph 1024mb 37f
8:50am 5 6 mph 1024.4mb 37f
8:40am 2 5 mph 1024.4mb 37f
8:30am 3 5 mph 1024.4mb 37f
8:20am 2 3 mph 1024.4mb 37f
8:10am 2 3 mph 1024.4mb 37f
8:00am 2 3 mph 1024.4mb 37f
7:50am 2 5 mph 1024.4mb 37f
7:40am 2 5 mph 1024.4mb 37f
7:30am 3 5 mph 1024.4mb 37f
7:20am 3
mph
1024.4mb 36f
7:10am 2 3 mph 1024.4mb 36f
7:00am 3 5 mph 1024.4mb 36f
6:50am 3 5 mph 1024.4mb 36f
6:40am 2 3 mph 1024mb 37f
6:30am 2
mph
1024mb 36f
6:20am 2 3 mph 1024mb 36f
6:10am 2 3 mph 1024mb 37f
6:00am 2 5 mph 1024.4mb 37f
5:50am 3 5 mph 1024.4mb 37f
5:40am 3 6 mph 1024.4mb 37f
5:30am 3 6 mph 1024.4mb 37f
5:20am 3 6 mph 1024.4mb 37f
5:10am 5 6 mph 1024.4mb 37f
5:00am 2 5 mph 1024.4mb 37f
4:50am 5 6 mph 1024.4mb 37f
4:40am 3 5 mph 1024.4mb 37f
4:30am 5 6 mph 1024.7mb 37f
4:20am 3 5 mph 1024.7mb 37f
4:10am 3 6 mph 1025.1mb 37f
4:00am 3 5 mph 1025.1mb 37f
3:50am 5 6 mph 1025.1mb 37f
3:40am 3 5 mph 1025.1mb 37f
3:30am 2 3 mph 1024.7mb 37f
3:20am 3 5 mph 1025.1mb 37f
3:10am 3
mph
1024.7mb 37f
3:00am  -  2 mph 1024.7mb 37f
2:50am 1 3 mph 1025.1mb 37f
2:40am 1 2 mph 1025.1mb 37f
2:30am 2
mph
1025.1mb 37f
2:20am  -  1 mph 1025.1mb 37f
2:10am  -  2 mph 1025.4mb 37f
2:00am  -  1 mph 1025.1mb 37f
1:50am  -  2 mph 1025.4mb 37f
1:40am  -  2 mph 1025.4mb 37f
1:30am  -  5 mph 1025.4mb 37f
1:20am 3 5 mph 1025.4mb 37f
1:10am 2 3 mph 1025.4mb 37f
1:00am 1 6 mph 1025.4mb 37f
12:50am 2 5 mph 1025.7mb 37f
12:40am 3 5 mph 1025.7mb 37f
12:30am 3 6 mph 1025.7mb 37f
12:20am 3 6 mph 1025.7mb 37f
12:10am 3 5 mph 1025.7mb 37f
12:00am 5 6 mph 1025.7mb 37f
Sat 12/03 11:50pm 5 6 mph 1025.7mb 37f
11:40pm 6 7 mph 1025.7mb 37f
11:30pm 3 6 mph 1025.7mb 37f
11:20pm 5 7 mph 1025.7mb 37f
11:10pm 6 8 mph 1025.7mb 37f
11:00pm 5 9 mph 1026.1mb 37f
10:50pm 6 7 mph 1026.1mb 37f
10:40pm 6 8 mph 1026.1mb 37f
10:30pm 7 8 mph 1025.7mb 37f
10:20pm 6 8 mph 1025.7mb 37f
10:10pm 5 7 mph 1026.1mb 38f
10:00pm 6 7 mph 1025.7mb 38f
9:50pm 5 8 mph 1026.1mb 38f
9:40pm 7 8 mph 1026.1mb 38f
9:30pm 6 8 mph 1026.1mb 38f
9:20pm 5 8 mph 1026.1mb 38f
9:10pm 5 8 mph 1025.7mb 38f
9:00pm 6 8 mph 1026.1mb 38f
8:50pm 7 10 mph 1025.7mb 38f
8:40pm 6 9 mph 1026.1mb 38f
8:30pm 6 10 mph 1025.7mb 38f
8:20pm 7 9 mph 1025.7mb 38f
8:10pm 8 10 mph 1025.7mb 38f
8:00pm 8 9 mph 1025.7mb 38f
7:50pm 7 9 mph 1025.7mb 38f
7:40pm 6 8 mph 1025.7mb 38f
7:30pm 6 9 mph 1025.7mb 38f
7:20pm 5 8 mph 1025.7mb 38f
7:10pm 6 9 mph 1025.7mb 38f
7:00pm 8 9 mph 1025.7mb 38f
6:50pm 8 11 mph 1025.7mb 38f
6:40pm 6 10 mph 1025.7mb 38f
6:30pm 8 10 mph 1025.7mb 38f
6:20pm 7 10 mph 1025.7mb 38f
6:10pm 7 10 mph 1025.7mb 38f
6:00pm 9 11 mph 1026.1mb 38f
5:50pm 7 13 mph 1026.1mb 38f
5:40pm 8 11 mph 1026.1mb 38f
5:30pm 6 10 mph 1026.1mb 38f
5:20pm 8 13 mph 1026.1mb 38f
5:10pm 8 13 mph 1026.1mb 38f
5:00pm 8 11 mph 1026.4mb 38f
4:50pm 8 14 mph 1026.4mb 38f
4:40pm 7 11 mph 1026.4mb 38f
4:30pm 8 11 mph 1026.4mb 39f
4:20pm 7 13 mph 1026.4mb 39f
4:10pm 6 11 mph 1026.4mb 39f
4:00pm 8 10 mph 1026.4mb 39f
3:50pm 8 11 mph 1026.1mb 39f
3:40pm 8 11 mph 1026.4mb 39f
3:30pm 6 10 mph 1026.1mb 39f
3:20pm 8 11 mph 1026.1mb 39f
3:10pm 9 10 mph 1026.1mb 39f
3:00pm 5 8 mph 1025.7mb 39f
2:50pm 8 10 mph 1026.1mb 39f
2:40pm 8 10 mph 1026.1mb 39f
2:30pm 6 10 mph 1026.1mb 39f
2:20pm 6 10 mph 1025.7mb 39f
2:10pm 6 11 mph 1025.7mb 39f
2:00pm 8 11 mph 1025.7mb 39f
1:50pm 8 11 mph 1026.1mb 39f
1:40pm 6 11 mph 1026.1mb 39f
1:30pm 9 11 mph 1026.1mb 39f
1:20pm 7 10 mph 1026.1mb 39f
1:10pm 6 13 mph 1025.7mb 39f
1:00pm 7 11 mph 1025.7mb 39f
12:50pm 8 13 mph 1025.4mb 39f
12:40pm 9 13 mph 1025.4mb 39f
12:30pm 6 13 mph 1025.1mb 39f
12:20pm 7 9 mph 1025.1mb 39f
12:10pm 3 11 mph 1025.1mb 39f
12:00pm 5 10 mph 1024.7mb 39f
11:50am 8 11 mph 1025.1mb 39f
11:40am 8 11 mph 1025.1mb 39f
11:30am 7 10 mph 1025.1mb 39f
11:20am 7 11 mph 1025.1mb 39f
11:10am 9 14 mph 1025.1mb 38f
11:00am 9 13 mph 1025.1mb 38f
10:50am 8 13 mph 1025.4mb 38f
10:40am 7 13 mph 1025.4mb 38f
10:30am 10 13 mph 1025.7mb 38f
10:20am 9 11 mph 1025.7mb 38f
10:10am 9 13 mph 1026.1mb 38f
10:00am 9 11 mph 1026.4mb 38f
9:50am 8 11 mph 1026.8mb 38f
9:40am 9 13 mph 1026.8mb 38f
9:30am 9 13 mph 1026.8mb 38f
9:20am 8 14 mph 1026.4mb 38f
9:10am 11 15 mph 1026.4mb 38f
9:00am 10 15 mph 1026.4mb 37f
8:50am 10 13 mph 1026.4mb 37f
8:40am 8 14 mph 1026.4mb 37f
8:30am 9 14 mph 1026.4mb 37f
8:20am 9 11 mph 1026.4mb 37f
8:10am 8 13 mph 1026.4mb 37f
8:00am 10 13 mph 1026.1mb 36f
7:50am 9 11 mph 1026.1mb 36f
7:40am 8 10 mph 1026.1mb 36f
7:30am 8 11 mph 1026.1mb 36f
7:20am 8 9 mph 1026.1mb 36f
7:10am 8 13 mph 1026.1mb 36f
7:00am 9 11 mph 1026.1mb 36f
6:50am 8 11 mph 1025.7mb 36f
6:40am 7 11 mph 1026.1mb 36f
6:30am 7 11 mph 1026.1mb 36f
6:20am 6 9 mph 1025.7mb 36f
6:10am 7 8 mph 1025.7mb 36f
6:00am 6 9 mph 1025.4mb 36f
5:50am 7 9 mph 1025.4mb 36f
5:40am 7 9 mph 1025.4mb 36f
5:30am 6 9 mph 1025.4mb 36f
5:20am 7 10 mph 1025.4mb 37f
5:10am 8 9 mph 1025.4mb 37f
5:00am 5 10 mph 1025.1mb 37f
4:50am 8 13 mph 1025.1mb 37f
4:40am 8 13 mph 1025.1mb 37f
4:30am 6 10 mph 1025.1mb 37f
4:20am 9 14 mph 1025.1mb 37f
4:10am 8 13 mph 1024.7mb 37f
4:00am 8 13 mph 1024.7mb 37f
3:50am 6 11 mph 1024.7mb 37f
3:40am 7 13 mph 1025.1mb 37f
3:30am 7 10 mph 1025.1mb 37f
3:20am 5 10 mph 1025.1mb 37f
3:10am 7 9 mph 1024.7mb 36f
3:00am 6 8 mph 1024.7mb 36f
2:50am 7 9 mph 1024.7mb 36f
2:40am 7 10 mph 1024.7mb 36f
2:30am 7 9 mph 1024.7mb 36f
2:20am 8 9 mph 1024.4mb 36f
2:10am 6 10 mph 1024.4mb 36f
2:00am 8 10 mph 1024.4mb 36f
1:50am 7 10 mph 1024.4mb 36f
1:40am 6 9 mph 1024.4mb 36f
1:30am 7 11 mph 1024.4mb 36f
1:20am 6 10 mph 1024.7mb 36f
1:10am 7 10 mph 1024.4mb 36f
1:00am 6 11 mph 1024.4mb 36f
12:50am 8 11 mph 1024.4mb 36f
12:40am 7 9 mph 1024.4mb 36f
12:30am 7 10 mph 1024mb 36f
12:20am 7 10 mph 1024mb 36f
12:10am 8 11 mph 1024.4mb 36f
12:00am 7 10 mph 1024mb 36f
Fri 12/02 11:50pm 8 11 mph 1024mb 36f
11:40pm 7 9 mph 1024mb 36f
11:30pm 8 10 mph 1024mb 36f
11:20pm 6 9 mph 1024mb 36f
11:10pm 6 11 mph 1024mb 36f
11:00pm 7 13 mph 1024mb 36f
10:50pm 8 11 mph 1024mb 36f
10:40pm 7 13 mph 1023.7mb 36f
10:30pm 8 13 mph 1023.7mb 36f
10:20pm 9 16 mph 1023.7mb 37f
10:10pm 8 14 mph 1023.7mb 37f
10:00pm 10 17 mph 1023.7mb 37f
9:50pm 10 18 mph 1023.4mb 37f
9:40pm 9 16 mph 1023.4mb 37f
9:30pm 9 14 mph 1023.4mb 38f
9:20pm 9 14 mph 1023.4mb 38f
9:10pm 9 13 mph 1023mb 38f
9:00pm 10 14 mph 1023mb 38f
8:50pm 8 16 mph 1023mb 38f
8:40pm 8 14 mph 1022.7mb 38f
8:30pm 10 14 mph 1022.7mb 38f
8:20pm 9 14 mph 1022.7mb 38f
8:10pm 8 15 mph 1022.4mb 38f
8:00pm 8 15 mph 1022mb 38f
7:50pm 10 16 mph 1022mb 38f
7:00pm 10 17 mph 1021.7mb 38f
6:50pm 11 21 mph 1021.7mb 38f
6:40pm 11 17 mph 1021.7mb 38f
6:30pm 11 23 mph 1021.3mb 38f
6:20pm 14 21 mph 1021mb 38f
6:10pm 14 21 mph 1021mb 38f
6:00pm 10 18 mph 1021mb 38f
5:50pm 9 17 mph 1021mb 38f
5:40pm 14 22 mph 1020.7mb 38f
5:30pm 10 17 mph 1020.7mb 38f
5:20pm 10 15 mph 1020.7mb 38f
5:10pm 10 15 mph 1020.7mb 38f
5:00pm 10 17 mph 1020.7mb 38f
4:50pm 10 16 mph 1020.3mb 38f
4:40pm 13 17 mph 1020.3mb 38f
4:30pm 11 23 mph 1020.3mb 38f
4:20pm 14 21 mph 1020mb 38f
4:10pm 13 18 mph 1020mb 38f
4:00pm 14 20 mph 1020mb 38f
3:50pm 10 20 mph 1020mb 38f
3:40pm 14 24 mph 1019.6mb 38f
3:30pm 15 23 mph 1019.6mb 38f
3:20pm 18 25 mph 1019.6mb 38f
3:10pm 13 24 mph 1019.6mb 38f
3:00pm 16 24 mph 1019.6mb 38f
2:50pm 13 24 mph 1019.6mb 39f
2:40pm 15 21 mph 1019.3mb 39f
2:30pm 10 23 mph 1019.3mb 39f
2:20pm 13 24 mph 1019mb 39f
2:10pm 17 23 mph 1019mb 39f
2:00pm 15 22 mph 1018.6mb 39f
1:50pm 14 22 mph 1018.3mb 39f
1:40pm 15 26 mph 1018.3mb 39f
1:30pm 14 23 mph 1017.9mb 40f
1:20pm 18 23 mph 1017.9mb 40f
1:10pm 10 20 mph 1017.6mb 40f
1:00pm 14 23 mph 1017.6mb 40f
12:50pm 14 25 mph 1017.6mb 41f
12:40pm 16 24 mph 1017.6mb 40f
12:30pm 17 28 mph 1017.3mb 40f
12:20pm 18 26 mph 1017.3mb 39f
12:10pm 9 23 mph 1017.6mb 40f
12:00pm 15 26 mph 1017.6mb 39f
11:50am 13 24 mph 1017.6mb 40f
11:40am 10 24 mph 1017.3mb 40f
11:30am 14 24 mph 1016.9mb 40f
11:20am 17 22 mph 1017.3mb 40f
11:10am 14 23 mph 1017.3mb 40f
11:00am 11 20 mph 1017.3mb 40f
10:50am 11 20 mph 1017.3mb 39f
10:40am 13 20 mph 1017.3mb 39f
10:30am 11 23 mph 1017.6mb 39f
10:20am 10 18 mph 1017.6mb 39f
10:10am 10 15 mph 1017.6mb 39f
10:00am 9 15 mph 1017.6mb 39f
9:50am 8 13 mph 1017.6mb 40f
9:40am 9 16 mph 1017.6mb 39f
9:30am 8 15 mph 1017.3mb 40f
9:20am 8 15 mph 1017.3mb 40f
9:10am 13 18 mph 1017.3mb 39f
9:00am 10 16 mph 1016.9mb 39f
8:50am 11 17 mph 1016.9mb 39f
8:40am 10 17 mph 1016.6mb 39f
8:30am 9 16 mph 1016.6mb 39f
8:20am 11 16 mph 1016.6mb 39f
8:10am 13 17 mph 1016.6mb 39f
8:00am 9 18 mph 1016.6mb 39f
7:50am 9 15 mph 1016.3mb 39f
7:40am 9 14 mph 1016.3mb 39f
7:30am 7 15 mph 1016.3mb 38f
7:20am 9 13 mph 1015.9mb 38f
7:10am 8 14 mph 1015.9mb 38f
7:00am 9 13 mph 1015.6mb 38f
6:50am 9 15 mph 1015.6mb 38f
6:40am 11 16 mph 1015.6mb 38f
6:30am 10 20 mph 1015.6mb 38f
6:20am 16 20 mph 1015.2mb 39f
6:10am 11 17 mph 1015.2mb 39f
6:00am 10 16 mph 1015.2mb 38f
5:50am 10 15 mph 1015.2mb 39f
5:40am 9 15 mph 1015.2mb 39f
5:30am 11 15 mph 1014.9mb 40f
5:20am 13 20 mph 1014.9mb 40f
5:10am 9 16 mph 1014.9mb 39f
5:00am 11 15 mph 1014.6mb 39f
4:50am 13 17 mph 1014.6mb 39f
4:40am 9 17 mph 1014.6mb 39f
4:30am 10 16 mph 1014.2mb 39f
4:20am 11 20 mph 1014.2mb 39f
4:10am 13 17 mph 1014.2mb 39f
4:00am 10 16 mph 1014.2mb 39f
3:50am 9 18 mph 1014.2mb 39f
3:40am 10 16 mph 1013.9mb 39f
3:30am 10 17 mph 1013.9mb 39f
3:20am 11 17 mph 1013.9mb 39f
3:10am 15 21 mph 1013.5mb 39f
3:00am 8 20 mph 1013.5mb 39f
2:50am 10 20 mph 1013.5mb 39f
2:40am 10 21 mph 1013.5mb 39f
2:30am 11 18 mph 1013.5mb 39f
2:20am 11 20 mph 1013.5mb 40f
2:10am 11 20 mph 1013.5mb 40f
2:00am 14 20 mph 1013.5mb 40f
1:50am 11 17 mph 1013.5mb 40f
1:40am 13 16 mph 1013.5mb 40f
1:30am 9 18 mph 1013.2mb 40f
1:20am 10 18 mph 1013.2mb 40f
1:10am 10 17 mph 1013.2mb 40f
1:00am 10 20 mph 1013.2mb 40f
12:50am 10 18 mph 1012.9mb 40f
12:40am 11 21 mph 1012.9mb 40f
12:30am 11 18 mph 1012.9mb 40f
12:20am 10 15 mph 1012.9mb 40f
12:10am 11 21 mph 1012.9mb 40f
12:00am 11 18 mph 1012.5mb 40f
Thu 12/01 11:50pm 11 18 mph 1012.5mb 40f
11:40pm 10 18 mph 1012.5mb 40f
11:30pm 9 18 mph 1012.5mb 40f
11:20pm 13 20 mph 1012.5mb 40f
11:10pm 13 20 mph 1012.5mb 40f
11:00pm 14 20 mph 1012.2mb 40f
10:50pm 13 20 mph 1012.2mb 40f
10:40pm 14 21 mph 1012.2mb 40f
10:30pm 15 20 mph 1012.2mb 40f
10:20pm 14 22 mph 1011.9mb 40f
10:10pm 11 25 mph 1011.9mb 40f
10:00pm 16 26 mph 1011.9mb 40f
9:50pm 13 23 mph 1011.9mb 40f
9:40pm 15 22 mph 1011.5mb 40f
9:30pm 16 23 mph 1011.5mb 40f
9:20pm 11 18 mph 1011.5mb 40f
9:10pm 13 21 mph 1011.9mb 40f
9:00pm 11 21 mph 1011.5mb 40f
8:50pm 11 18 mph 1011.5mb 40f
8:40pm 15 21 mph 1011.5mb 40f
8:30pm 13 18 mph 1011.5mb 40f
8:20pm 13 18 mph 1011.2mb 40f
8:10pm 13 20 mph 1011.2mb 40f
8:00pm 14 23 mph 1011.2mb 41f
7:50pm 15 22 mph 1011.2mb 41f
7:40pm 13 23 mph 1011.2mb 41f
7:30pm 13 18 mph 1011.2mb 41f
7:20pm 13 21 mph 1011.2mb 41f
7:10pm 10 18 mph 1011.2mb 41f
7:00pm 9 18 mph 1010.8mb 41f
6:50pm 11 20 mph 1010.8mb 41f
6:40pm 11 18 mph 1010.8mb 41f
6:30pm 11 20 mph 1010.8mb 41f
6:20pm 13 20 mph 1010.8mb 41f
6:10pm 11 17 mph 1010.8mb 41f
6:00pm 14 21 mph 1010.5mb 41f
5:50pm 11 21 mph 1010.5mb 41f
5:40pm 11 18 mph 1010.5mb 41f
5:30pm 14 18 mph 1010.5mb 41f
5:20pm 11 16 mph 1010.2mb 41f
5:10pm 10 16 mph 1010.2mb 41f
5:00pm 9 15 mph 1010.2mb 40f
4:50pm 10 16 mph 1009.8mb 40f
4:40pm 10 28 mph 1009.8mb 40f
4:30pm 13 18 mph 1009.8mb 40f
4:20pm 13 18 mph 1009.5mb 40f
4:10pm 14 22 mph 1009.5mb 40f
4:00pm 14 21 mph 1009.5mb 40f
3:50pm 15 22 mph 1009.5mb 40f
3:40pm 11 18 mph 1009.1mb 40f
3:30pm 14 20 mph 1009.1mb 40f
3:20pm 13 20 mph 1009.1mb 40f
3:10pm 9 16 mph 1008.8mb 40f
3:00pm 13 16 mph 1008.8mb 40f
2:50pm 10 16 mph 1008.8mb 40f
2:40pm 13 22 mph 1008.5mb 40f
2:30pm 15 21 mph 1008.5mb 40f
2:20pm 14 21 mph 1008.5mb 40f
2:10pm 13 23 mph 1008.5mb 40f
2:00pm 11 17 mph 1008.1mb 40f